User: anonymous   Login
Location: Unspecified
(0.0000°N, 0.0000°E)
Time: 05:33:46
(UTC+00:00)
Language:

FALCON 9 R/B - Orbit

View from above orbital plane
View from above orbital plane
View from above satellite
View from above satellite

Ground track
Ground track

The orbit data is extracted from the following two-line orbital elements,

1 39271U 13055G   18349.91417478  .00003552  00000-0  87278-4 0  9993
2 39271  80.9664 135.8875 0608301  16.9499 345.1053 14.43289744271333
Epoch (UTC): 15 December 2018 21:56:24
Eccentricity: 0.0608301
inclination: 80.9664°
perigee height: 314 km
apogee height: 1181 km
right ascension of ascending node: 135.8875°
argument of perigee: 16.9499°
revolutions per day: 14.43289744
mean anomaly at epoch: 345.1053°
orbit number at epoch: 27133

The dashed part of the orbit path shows where the satellite is in the earth's shadow,  

DLR